User: anonymous   Login
Location: Pine Mountain Observatory
(43.7910°N, 120.9377°W)
Time: 03:25:38
(UTC-07:00)
Language:

Cosmos 1867 - Orbit

View from above orbital plane
View from above orbital plane
View from above satellite
View from above satellite

Ground track
Ground track

The orbit data is extracted from the following two-line orbital elements,

1 18187U 87060A   15247.22851516 -.00000068  00000-0  12187-4 0  9993
2 18187  65.0088 253.3483 0017847 281.6574  78.2508 14.31061448470702
Epoch (UTC): 04 September 2015 05:29:03
Eccentricity: 0.0017847
inclination: 65.0088°
perigee height: 775 km
apogee height: 801 km
right ascension of ascending node: 253.3483°
argument of perigee: 281.6574°
revolutions per day: 14.31061448
mean anomaly at epoch: 78.2508°
orbit number at epoch: 47070

The dashed part of the orbit path shows where the satellite is in the earth's shadow,  

DLR